F8BJE-13 Weather Reports


time (UTC)temp
C
wind
direction
speed
KPH
gust
KPH
rain 1hr
cm
rain 24hr
cm
rain mn
cm
humidity
%
barometer
mb
20260507191056 12 181 0.0 0.0 0.00 0.05 0.00 66 1014.3
20260507184055 13 160 0.0 1.6 0.00 0.05 0.00 63 1014.1
20260507181056 14 135 0.0 1.6 0.00 0.08 0.00 60 1014.0
20260507174056 15 94 0.0 1.6 0.00 0.10 0.00 51 1014.1
20260507171056 15 126 0.0 1.6 0.00 0.13 0.00 51 1014.1
20260507164056 17 136 0.0 3.2 0.00 0.20 0.00 49 1014.3
20260507161055 21 133 1.6 4.8 0.00 0.20 0.00 37 1014.2
20260507154055 21 186 0.0 3.2 0.00 0.23 0.00 35 1014.3
20260507151055 20 69 0.0 6.4 0.00 0.28 0.00 39 1014.2
20260507144055 23 166 0.0 3.2 0.00 0.43 0.00 35 1014.6
20260507141055 23 0 0.0 0.0 0.00 0.97 0.00 35 1014.6
20260507134056 23 0 0.0 0.0 0.00 1.17 0.00 33 1015.0
20260507131056 21 0 0.0 0.0 0.00 1.17 0.00 33 1015.0
20260507124056 21 0 0.0 0.0 0.00 1.17 0.00 35 1015.3
20260507121059 21 0 0.0 0.0 0.00 0.00 0.00
20260507121056 21 0 0.0 0.0 0.00 1.17 0.00 37 1015.3
20260507114055 21 0 0.0 0.0 0.00 1.19 0.00 40 1015.4
20260507111056 17 0 0.0 0.0 0.00 1.22 0.00 45 1015.5
20260507104056 20 0 0.0 0.0 0.00 1.27 0.00 40 1015.5
20260507101056 17 0 0.0 0.0 0.00 1.30 0.00 53 1015.8
20260507094056 18 0 0.0 0.0 0.00 1.35 0.00 52 1015.6
20260507091056 14 0 0.0 0.0 0.00 1.37 0.00 62 1015.5
20260507084056 17 0 0.0 0.0 0.00 1.45 0.00 55 1015.4
20260507081055 17 0 0.0 0.0 0.00 1.57 0.00 54 1015.4
20260507074056 17 0 0.0 0.0 0.00 1.68 0.00 62 1015.4
20260507071055 14 0 0.0 0.0 0.00 1.68 0.00 80 1015.2
20260507064054 12 0 0.0 0.0 0.00 1.68 0.00 98 1015.1
20260507062736 10 0 0.0 0.0 0.00 1.68 0.00 98 1015.2
20260507055736 8 0 0.0 0.0 0.00 1.68 0.00 99 1015.1
20260507052735 7 0 0.0 0.0 0.00 1.68 0.00 99 1014.7
20260507045736 7 0 0.0 0.0 0.00 1.68 0.00 99 1014.4
20260507042737 8 0 0.0 0.0 0.00 1.68 0.00 99 1014.3
20260507035736 8 0 0.0 0.0 0.00 1.68 0.00 99 1014.3
20260507032735 8 0 0.0 0.0 0.00 1.68 0.00 99 1014.0
20260507025735 8 0 0.0 0.0 0.00 1.68 0.00 99 1013.9
20260507022736 8 166 0.0 0.0 0.00 1.68 0.00 99 1013.9
20260507015736 8 0 0.0 0.0 0.00 1.68 0.00 99 1013.7
20260507012737 8 0 0.0 0.0 0.00 1.68 0.00 99 1013.4
20260507005736 8 0 0.0 0.0 0.00 1.68 0.00 99 1013.5
20260507002736 8 0 0.0 0.0 0.00 1.68 0.00 99 1013.4
20260506235736 8 0 0.0 0.0 0.00 1.68 0.00 99 1013.4
20260506232735 8 181 0.0 0.0 0.00 1.68 0.00 99 1013.3
20260506225736 8 160 0.0 1.6 0.00 1.68 0.00 99 1013.2
20260506222736 8 0 0.0 0.0 0.00 1.68 0.00 99 1013.1
20260506215736 8 177 0.0 3.2 0.03 1.68 1.68 99 1012.8
20260506212736 8 181 0.0 3.2 0.03 1.68 1.68 99 1012.7
20260506205737 8 181 0.0 0.0 0.03 1.63 1.63 99 1012.6
20260506202736 8 140 0.0 3.2 0.03 1.63 1.63 98 1012.5
20260506195735 8 141 0.0 4.8 0.00 1.60 1.60 98 1012.2